| time (UTC) | temp C | wind direction | speed KPH | gust KPH | rain 1hr cm | rain 24hr cm | rain mn cm | humidity % | barometer mb |
| 20260831063826 | -17 | 0.0 | 0.0 | 0.00 | 0.00 | 0.00 | 1019.2 | ||
| 20260831063326 | -17 | 0.0 | 0.0 | 0.00 | 0.00 | 0.00 | 1019.3 | ||
| 20260831062821 | -17 | 0.0 | 0.0 | 0.00 | 0.00 | 0.00 | 1019.3 | ||
| 20260831062316 | -17 | 0.0 | 0.0 | 0.00 | 0.00 | 0.00 | 1019.4 | ||
| 20260831061815 | 28 | 228 | 4.8 | 4.8 | 0.00 | 0.00 | 0.00 | 76 | 1019.2 |
| 20260831061314 | 28 | 228 | 4.8 | 4.8 | 0.00 | 0.00 | 0.00 | 76 | 1019.4 |
| 20260831060811 | 28 | 228 | 4.8 | 4.8 | 0.00 | 0.00 | 0.00 | 76 | 1019.2 |
| 20260831060310 | 28 | 170 | 8.0 | 12.9 | 0.00 | 0.00 | 0.00 | 75 | 1019.2 |
| 20260831055810 | 28 | 170 | 8.0 | 12.9 | 0.00 | 0.00 | 0.00 | 75 | 1019.0 |
| 20260831055306 | 28 | 170 | 8.0 | 12.9 | 0.00 | 0.00 | 0.00 | 75 | 1019.0 |
| 20260831054800 | 28 | 214 | 6.4 | 11.3 | 0.00 | 0.00 | 0.00 | 75 | 1019.0 |
| 20260831054255 | -17 | 0.0 | 0.0 | 0.00 | 0.00 | 0.00 | 1018.9 | ||
| 20260831053754 | -17 | 0.0 | 0.0 | 0.00 | 0.00 | 0.00 | 1019.0 | ||
| 20260831053253 | -17 | 0.0 | 0.0 | 0.00 | 0.00 | 0.00 | 1018.8 | ||
| 20260831052747 | 28 | 155 | 8.0 | 11.3 | 0.00 | 0.00 | 0.00 | 75 | 1018.7 |
| 20260831052247 | 28 | 155 | 8.0 | 11.3 | 0.00 | 0.00 | 0.00 | 75 | 1018.6 |
| 20260831051744 | 28 | 184 | 4.8 | 8.0 | 0.00 | 0.00 | 0.00 | 75 | 1018.6 |
| 20260831051244 | -17 | 0.0 | 0.0 | 0.00 | 0.00 | 0.00 | 1018.5 | ||
| 20260831050739 | -17 | 0.0 | 0.0 | 0.00 | 0.00 | 0.00 | 1018.8 | ||
| 20260831050237 | -17 | 0.0 | 0.0 | 0.00 | 0.00 | 0.00 | 1018.7 | ||
| 20260831045733 | -17 | 0.0 | 0.0 | 0.00 | 0.00 | 0.00 | 1018.7 | ||
| 20260831045233 | -17 | 0.0 | 0.0 | 0.00 | 0.00 | 0.00 | 1018.5 | ||
| 20260831044727 | 30 | 222 | 6.4 | 9.7 | 0.00 | 0.00 | 0.00 | 70 | 1018.5 |
| 20260831044223 | 30 | 222 | 6.4 | 9.7 | 0.00 | 0.00 | 0.00 | 70 | 1018.5 |
| 20260831043719 | 30 | 222 | 6.4 | 9.7 | 0.00 | 0.00 | 0.00 | 70 | 1018.4 |
| 20260831043214 | -17 | 0.0 | 0.0 | 0.00 | 0.00 | 0.00 | 1018.5 | ||
| 20260831042713 | 30 | 190 | 11.3 | 12.9 | 0.00 | 0.00 | 0.00 | 68 | 1018.3 |
| 20260831042208 | 30 | 190 | 11.3 | 12.9 | 0.00 | 0.00 | 0.00 | 68 | 1018.6 |
| 20260831041703 | 30 | 190 | 11.3 | 12.9 | 0.00 | 0.00 | 0.00 | 68 | 1018.4 |
| 20260831041202 | -17 | 0.0 | 0.0 | 0.00 | 0.00 | 0.00 | 1018.3 | ||
| 20260831040657 | -17 | 0.0 | 0.0 | 0.00 | 0.00 | 0.00 | 1018.6 | ||
| 20260831040156 | -17 | 0.0 | 0.0 | 0.00 | 0.00 | 0.00 | 1018.6 | ||
| 20260831035655 | -17 | 0.0 | 0.0 | 0.00 | 0.00 | 0.00 | 1018.5 | ||
| 20260831035150 | -17 | 0.0 | 0.0 | 0.00 | 0.00 | 0.00 | 1018.3 | ||
| 20260831034648 | -17 | 0.0 | 0.0 | 0.00 | 0.00 | 0.00 | 1018.5 | ||
| 20260831034144 | 31 | 171 | 4.8 | 4.8 | 0.00 | 0.00 | 0.00 | 63 | 1018.2 |
| 20260831033640 | 31 | 171 | 4.8 | 4.8 | 0.00 | 0.00 | 0.00 | 63 | 1018.3 |
| 20260831033134 | 31 | 171 | 4.8 | 4.8 | 0.00 | 0.00 | 0.00 | 63 | 1018.1 |
| 20260831032629 | -17 | 0.0 | 0.0 | 0.00 | 0.00 | 0.00 | 1018.2 | ||
| 20260831032125 | -17 | 0.0 | 0.0 | 0.00 | 0.00 | 0.00 | 1018.0 | ||
| 20260831031624 | -17 | 0.0 | 0.0 | 0.00 | 0.00 | 0.00 | 1017.9 | ||
| 20260831031124 | -17 | 0.0 | 0.0 | 0.00 | 0.00 | 0.00 | 1017.9 | ||
| 20260831030622 | -17 | 0.0 | 0.0 | 0.00 | 0.00 | 0.00 | 1017.8 | ||
| 20260831030122 | 31 | 183 | 9.7 | 12.9 | 0.00 | 0.00 | 0.00 | 59 | 1017.8 |
| 20260831025620 | 31 | 183 | 9.7 | 12.9 | 0.00 | 0.00 | 0.00 | 59 | 1017.8 |
| 20260831025115 | 31 | 183 | 9.7 | 12.9 | 0.00 | 0.00 | 0.00 | 59 | 1017.5 |
| 20260831024612 | 31 | 195 | 8.0 | 11.3 | 0.00 | 0.00 | 0.00 | 59 | 1017.4 |
| 20260831024110 | -17 | 0.0 | 0.0 | 0.00 | 0.00 | 0.00 | 1017.3 | ||
| 20260831023609 | -17 | 0.0 | 0.0 | 0.00 | 0.00 | 0.00 | 1017.3 | ||
| 20260831023108 | 31 | 180 | 4.8 | 8.0 | 0.00 | 0.00 | 0.00 | 53 | 1017.0 |
| 20260831022603 | 31 | 180 | 4.8 | 8.0 | 0.00 | 0.00 | 0.00 | 53 | 1017.3 |
| 20260831022058 | 31 | 180 | 4.8 | 8.0 | 0.00 | 0.00 | 0.00 | 53 | 1016.8 |
| 20260831021556 | 31 | 173 | 6.4 | 8.0 | 0.00 | 0.00 | 0.00 | 54 | 1017.0 |
| 20260831021052 | 31 | 175 | 4.8 | 4.8 | 0.00 | 0.00 | 0.00 | 54 | 1016.6 |
| 20260831020547 | 31 | 199 | 0.0 | 0.0 | 0.00 | 0.00 | 0.00 | 57 | 1016.5 |
| 20260831020037 | -17 | 0.0 | 0.0 | 0.00 | 0.00 | 0.00 | 1016.5 | ||
| 20260831015533 | -17 | 0.0 | 0.0 | 0.00 | 0.00 | 0.00 | 1016.7 | ||
| 20260831015027 | -17 | 0.0 | 0.0 | 0.00 | 0.00 | 0.00 | 1016.4 | ||
| 20260831014522 | -17 | 0.0 | 0.0 | 0.00 | 0.00 | 0.00 | 1016.4 | ||
| 20260831014018 | -17 | 0.0 | 0.0 | 0.00 | 0.00 | 0.00 | 1016.3 | ||
| 20260831013514 | -17 | 0.0 | 0.0 | 0.00 | 0.00 | 0.00 | 1016.3 | ||
| 20260831013008 | -17 | 0.0 | 0.0 | 0.00 | 0.00 | 0.00 | 1016.1 | ||
| 20260831012503 | 33 | 203 | 1.6 | 1.6 | 0.00 | 0.00 | 0.00 | 49 | 1016.0 |
| 20260831012002 | 33 | 203 | 1.6 | 1.6 | 0.00 | 0.00 | 0.00 | 49 | 1016.1 |
| 20260831011457 | 33 | 203 | 1.6 | 1.6 | 0.00 | 0.00 | 0.00 | 49 | 1016.1 |
| 20260831010953 | 33 | 219 | 1.6 | 1.6 | 0.00 | 0.00 | 0.00 | 49 | 1016.0 |
| 20260831010453 | 33 | 196 | 3.2 | 4.8 | 0.00 | 0.00 | 0.00 | 48 | 1015.9 |
| 20260831005949 | 33 | 201 | 3.2 | 3.2 | 0.00 | 0.00 | 0.00 | 48 | 1016.1 |
| 20260831005444 | 34 | 181 | 3.2 | 4.8 | 0.00 | 0.00 | 0.00 | 47 | 1016.0 |
| 20260831004943 | 34 | 163 | 3.2 | 3.2 | 0.00 | 0.00 | 0.00 | 47 | 1016.0 |
| 20260831004440 | 34 | 188 | 9.7 | 12.9 | 0.00 | 0.00 | 0.00 | 46 | 1015.9 |
| 20260831003936 | 34 | 192 | 4.8 | 8.0 | 0.00 | 0.00 | 0.00 | 46 | 1016.2 |
| 20260831003431 | 35 | 183 | 3.2 | 4.8 | 0.00 | 0.00 | 0.00 | 46 | 1015.7 |
| 20260831002931 | 35 | 210 | 1.6 | 1.6 | 0.00 | 0.00 | 0.00 | 46 | 1015.7 |
| 20260831002430 | 34 | 177 | 6.4 | 9.7 | 0.00 | 0.00 | 0.00 | 45 | 1016.1 |
| 20260831001926 | 33 | 201 | 4.8 | 4.8 | 0.00 | 0.00 | 0.00 | 46 | 1016.0 |
| 20260831001421 | 33 | 231 | 0.0 | 0.0 | 0.00 | 0.00 | 0.00 | 47 | 1015.8 |
| 20260831000918 | 34 | 208 | 1.6 | 1.6 | 0.00 | 0.00 | 0.00 | 45 | 1016.1 |
| 20260831000414 | 35 | 209 | 0.0 | 1.6 | 0.00 | 0.00 | 0.00 | 45 | 1015.8 |
| 20260830235912 | 35 | 208 | 3.2 | 3.2 | 0.00 | 0.00 | 0.00 | 44 | 1015.9 |
| 20260830235407 | 35 | 171 | 3.2 | 3.2 | 0.00 | 0.00 | 0.00 | 44 | 1015.9 |
| 20260830234902 | 35 | 208 | 4.8 | 4.8 | 0.00 | 0.00 | 0.00 | 44 | 1015.9 |
| 20260830234357 | 35 | 195 | 1.6 | 3.2 | 0.00 | 0.00 | 0.00 | 43 | 1016.1 |
| 20260830233854 | 35 | 217 | 3.2 | 4.8 | 0.00 | 0.00 | 0.00 | 44 | 1016.0 |
| 20260830233348 | 35 | 213 | 1.6 | 3.2 | 0.00 | 0.00 | 0.00 | 44 | 1016.0 |
| 20260830232844 | 35 | 136 | 8.0 | 9.7 | 0.00 | 0.00 | 0.00 | 42 | 1016.0 |
| 20260830232339 | 36 | 205 | 4.8 | 8.0 | 0.00 | 0.00 | 0.00 | 42 | 1015.9 |
| 20260830231836 | 36 | 184 | 4.8 | 4.8 | 0.00 | 0.00 | 0.00 | 43 | 1016.1 |
| 20260830231331 | 36 | 181 | 8.0 | 11.3 | 0.00 | 0.00 | 0.00 | 42 | 1016.1 |
| 20260830230830 | 35 | 195 | 3.2 | 3.2 | 0.00 | 0.00 | 0.00 | 43 | 1016.0 |
| 20260830230326 | 36 | 192 | 8.0 | 9.7 | 0.00 | 0.00 | 0.00 | 42 | 1016.3 |
| 20260830225825 | 36 | 159 | 4.8 | 8.0 | 0.00 | 0.00 | 0.00 | 42 | 1016.0 |
| 20260830225320 | 36 | 194 | 6.4 | 11.3 | 0.00 | 0.00 | 0.00 | 43 | 1015.9 |
| 20260830224815 | 36 | 152 | 8.0 | 9.7 | 0.00 | 0.00 | 0.00 | 43 | 1016.1 |
| 20260830224309 | 36 | 199 | 3.2 | 3.2 | 0.00 | 0.00 | 0.00 | 43 | 1016.2 |
| 20260830223806 | 36 | 190 | 4.8 | 9.7 | 0.00 | 0.00 | 0.00 | 42 | 1016.2 |
| 20260830223302 | 36 | 208 | 0.0 | 1.6 | 0.00 | 0.00 | 0.00 | 42 | 1016.2 |
| 20260830222755 | 36 | 113 | 6.4 | 11.3 | 0.00 | 0.00 | 0.00 | 42 | 1016.1 |
| 20260830222251 | 36 | 207 | 1.6 | 3.2 | 0.00 | 0.00 | 0.00 | 43 | 1016.3 |
| 20260830221746 | 36 | 194 | 8.0 | 9.7 | 0.00 | 0.00 | 0.00 | 42 | 1016.2 |
| 20260830221244 | 36 | 212 | 4.8 | 8.0 | 0.00 | 0.00 | 0.00 | 43 | 1016.3 |
| 20260830220743 | 36 | 217 | 0.0 | 0.0 | 0.00 | 0.00 | 0.00 | 43 | 1016.4 |
| 20260830220243 | 36 | 220 | 4.8 | 4.8 | 0.00 | 0.00 | 0.00 | 42 | 1016.5 |
| 20260830215741 | 35 | 182 | 6.4 | 8.0 | 0.00 | 0.00 | 0.00 | 44 | 1016.3 |
| 20260830215236 | 36 | 211 | 6.4 | 8.0 | 0.00 | 0.00 | 0.00 | 43 | 1016.5 |
| 20260830214731 | 36 | 185 | 8.0 | 9.7 | 0.00 | 0.00 | 0.00 | 43 | 1016.3 |
| 20260830214231 | 36 | 151 | 6.4 | 8.0 | 0.00 | 0.00 | 0.00 | 44 | 1016.5 |
| 20260830213730 | 36 | 162 | 4.8 | 4.8 | 0.00 | 0.00 | 0.00 | 44 | 1016.5 |
| 20260830213226 | 36 | 207 | 4.8 | 8.0 | 0.00 | 0.00 | 0.00 | 44 | 1016.8 |
| 20260830212721 | 36 | 196 | 4.8 | 8.0 | 0.00 | 0.00 | 0.00 | 44 | 1016.6 |
| 20260830212217 | 35 | 185 | 6.4 | 8.0 | 0.00 | 0.00 | 0.00 | 47 | 1016.8 |
| 20260830211712 | 34 | 145 | 6.4 | 8.0 | 0.00 | 0.00 | 0.00 | 48 | 1016.8 |
| 20260830211210 | 35 | 165 | 8.0 | 11.3 | 0.00 | 0.00 | 0.00 | 48 | 1017.1 |
| 20260830210707 | 36 | 209 | 4.8 | 8.0 | 0.00 | 0.00 | 0.00 | 46 | 1017.3 |
| 20260830210206 | 36 | 194 | 8.0 | 9.7 | 0.00 | 0.00 | 0.00 | 47 | 1017.1 |
| 20260830205703 | 36 | 178 | 4.8 | 8.0 | 0.00 | 0.00 | 0.00 | 45 | 1017.4 |
| 20260830205158 | 36 | 224 | 3.2 | 4.8 | 0.00 | 0.00 | 0.00 | 46 | 1017.2 |
| 20260830204658 | 36 | 256 | 1.6 | 1.6 | 0.00 | 0.00 | 0.00 | 46 | 1017.4 |
| 20260830204157 | 36 | 166 | 6.4 | 8.0 | 0.00 | 0.00 | 0.00 | 45 | 1017.9 |
| 20260830203654 | 36 | 164 | 8.0 | 9.7 | 0.00 | 0.00 | 0.00 | 45 | 1017.8 |
| 20260830203149 | 36 | 220 | 0.0 | 1.6 | 0.00 | 0.00 | 0.00 | 50 | 1017.5 |
| 20260830202648 | 36 | 134 | 8.0 | 11.3 | 0.00 | 0.00 | 0.00 | 45 | 1017.8 |
| 20260830202143 | 36 | 157 | 8.0 | 11.3 | 0.00 | 0.00 | 0.00 | 46 | 1017.7 |
| 20260830201643 | 35 | 154 | 8.0 | 9.7 | 0.00 | 0.00 | 0.00 | 47 | 1017.8 |
| 20260830201139 | 35 | 213 | 9.7 | 16.1 | 0.00 | 0.00 | 0.00 | 47 | 1018.0 |
| 20260830200634 | 36 | 192 | 8.0 | 9.7 | 0.00 | 0.00 | 0.00 | 47 | 1017.8 |
| 20260830200133 | 36 | 189 | 6.4 | 9.7 | 0.00 | 0.00 | 0.00 | 46 | 1018.1 |
| 20260830195629 | 36 | 124 | 4.8 | 8.0 | 0.00 | 0.00 | 0.00 | 47 | 1017.9 |
| 20260830195126 | 35 | 221 | 4.8 | 9.7 | 0.00 | 0.00 | 0.00 | 48 | 1018.4 |
| 20260830194621 | 36 | 135 | 6.4 | 8.0 | 0.00 | 0.00 | 0.00 | 47 | 1018.3 |
| 20260830194120 | 35 | 217 | 0.0 | 1.6 | 0.00 | 0.00 | 0.00 | 50 | 1018.4 |
| 20260830193620 | 35 | 191 | 4.8 | 8.0 | 0.00 | 0.00 | 0.00 | 50 | 1018.5 |
| 20260830193115 | 36 | 216 | 1.6 | 3.2 | 0.00 | 0.00 | 0.00 | 49 | 1018.8 |
| 20260830192611 | 36 | 88 | 4.8 | 8.0 | 0.00 | 0.00 | 0.00 | 49 | 1018.7 |
| 20260830192110 | 35 | 174 | 6.4 | 8.0 | 0.00 | 0.00 | 0.00 | 52 | 1018.8 |
| 20260830191606 | 35 | 125 | 8.0 | 11.3 | 0.00 | 0.00 | 0.00 | 50 | 1018.7 |
| 20260830191102 | 35 | 210 | 9.7 | 12.9 | 0.00 | 0.00 | 0.00 | 50 | 1018.9 |
| 20260830190557 | 35 | 198 | 4.8 | 8.0 | 0.00 | 0.00 | 0.00 | 49 | 1019.1 |
| 20260830190052 | 35 | 206 | 11.3 | 14.5 | 0.00 | 0.00 | 0.00 | 48 | 1019.1 |
| 20260830185545 | 35 | 301 | 1.6 | 1.6 | 0.00 | 0.00 | 0.00 | 51 | 1019.1 |
| 20260830185041 | 35 | 194 | 3.2 | 4.8 | 0.00 | 0.00 | 0.00 | 51 | 1019.2 |
| 20260830184540 | 35 | 242 | 3.2 | 3.2 | 0.00 | 0.00 | 0.00 | 51 | 1019.2 |
| 20260830184034 | 34 | 227 | 6.4 | 9.7 | 0.00 | 0.00 | 0.00 | 54 | 1019.2 |
| 20260830183529 | 35 | 232 | 0.0 | 1.6 | 0.00 | 0.00 | 0.00 | 57 | 1019.4 |
| 20260830183025 | 34 | 217 | 3.2 | 4.8 | 0.00 | 0.00 | 0.00 | 53 | 1019.3 |
| 20260830182520 | 34 | 187 | 3.2 | 3.2 | 0.00 | 0.00 | 0.00 | 55 | 1019.5 |
| 20260830182016 | 33 | 205 | 6.4 | 11.3 | 0.00 | 0.00 | 0.00 | 55 | 1019.5 |
| 20260830181512 | 33 | 206 | 3.2 | 3.2 | 0.00 | 0.00 | 0.00 | 55 | 1019.7 |
| 20260830181011 | 34 | 201 | 1.6 | 3.2 | 0.00 | 0.00 | 0.00 | 54 | 1019.7 |
| 20260830180506 | 33 | 163 | 8.0 | 9.7 | 0.00 | 0.00 | 0.00 | 55 | 1019.6 |
| 20260830180004 | 33 | 216 | 8.0 | 9.7 | 0.00 | 0.00 | 0.00 | 56 | 1019.9 |
| 20260830175459 | 34 | 215 | 0.0 | 0.0 | 0.00 | 0.00 | 0.00 | 56 | 1020.3 |
| 20260830174954 | 33 | 213 | 1.6 | 4.8 | 0.00 | 0.00 | 0.00 | 55 | 1020.3 |
| 20260830174450 | 34 | 215 | 0.0 | 0.0 | 0.00 | 0.00 | 0.00 | 58 | 1020.6 |
| 20260830173949 | 34 | 217 | 4.8 | 8.0 | 0.00 | 0.00 | 0.00 | 54 | 1020.2 |
| 20260830173446 | 35 | 133 | 6.4 | 9.7 | 0.00 | 0.00 | 0.00 | 54 | 1020.4 |
| 20260830172941 | 33 | 286 | 1.6 | 1.6 | 0.00 | 0.00 | 0.00 | 58 | 1020.5 |
| 20260830172437 | 33 | 206 | 0.0 | 1.6 | 0.00 | 0.00 | 0.00 | 59 | 1020.7 |
| 20260830171933 | 33 | 178 | 1.6 | 3.2 | 0.00 | 0.00 | 0.00 | 59 | 1020.7 |
| 20260830171428 | 33 | 223 | 1.6 | 3.2 | 0.00 | 0.00 | 0.00 | 57 | 1020.6 |
| 20260830170928 | 33 | 149 | 3.2 | 8.0 | 0.00 | 0.00 | 0.00 | 58 | 1020.7 |
| 20260830170428 | 33 | 206 | 8.0 | 9.7 | 0.00 | 0.00 | 0.00 | 55 | 1020.9 |
| 20260830165926 | 33 | 194 | 4.8 | 4.8 | 0.00 | 0.00 | 0.00 | 56 | 1020.6 |
| 20260830165423 | 33 | 121 | 8.0 | 9.7 | 0.00 | 0.00 | 0.00 | 56 | 1020.9 |
| 20260830164919 | 33 | 239 | 1.6 | 3.2 | 0.00 | 0.00 | 0.00 | 60 | 1021.0 |
| 20260830164414 | 33 | 225 | 0.0 | 0.0 | 0.00 | 0.00 | 0.00 | 62 | 1021.0 |
| 20260830163911 | 33 | 26 | 4.8 | 4.8 | 0.00 | 0.00 | 0.00 | 58 | 1021.0 |
| 20260830163406 | 33 | 219 | 1.6 | 1.6 | 0.00 | 0.00 | 0.00 | 63 | 1021.0 |
| 20260830162906 | 33 | 323 | 3.2 | 4.8 | 0.00 | 0.00 | 0.00 | 61 | 1021.1 |
| 20260830162402 | 32 | 225 | 0.0 | 0.0 | 0.00 | 0.00 | 0.00 | 64 | 1021.2 |
| 20260830161857 | 32 | 143 | 4.8 | 4.8 | 0.00 | 0.00 | 0.00 | 60 | 1020.8 |
| 20260830161356 | 32 | 205 | 0.0 | 0.0 | 0.00 | 0.00 | 0.00 | 67 | 1021.1 |
| 20260830160852 | 32 | 193 | 4.8 | 9.7 | 0.00 | 0.00 | 0.00 | 63 | 1021.1 |
| 20260830160342 | 32 | 164 | 1.6 | 1.6 | 0.00 | 0.00 | 0.00 | 62 | 1021.0 |
| 20260830155837 | 32 | 225 | 0.0 | 0.0 | 0.00 | 0.00 | 0.00 | 67 | 1021.1 |
| 20260830155333 | 32 | 169 | 8.0 | 9.7 | 0.00 | 0.00 | 0.00 | 63 | 1020.9 |
| 20260830154833 | 31 | 219 | 0.0 | 0.0 | 0.00 | 0.00 | 0.00 | 68 | 1020.8 |
| 20260830154329 | 32 | 181 | 3.2 | 4.8 | 0.00 | 0.00 | 0.00 | 66 | 1021.0 |
| 20260830153826 | 31 | 236 | 1.6 | 3.2 | 0.00 | 0.00 | 0.00 | 68 | 1020.8 |
| 20260830153321 | 31 | 181 | 4.8 | 4.8 | 0.00 | 0.00 | 0.00 | 68 | 1020.8 |
| 20260830152820 | 31 | 198 | 0.0 | 0.0 | 0.00 | 0.00 | 0.00 | 70 | 1021.0 |
| 20260830152314 | 31 | 153 | 4.8 | 4.8 | 0.00 | 0.00 | 0.00 | 69 | 1020.9 |
| 20260830151809 | 31 | 199 | 0.0 | 1.6 | 0.00 | 0.00 | 0.00 | 70 | 1020.8 |
| 20260830151308 | 31 | 258 | 4.8 | 8.0 | 0.00 | 0.00 | 0.00 | 69 | 1021.1 |
| 20260830150803 | 31 | 185 | 6.4 | 9.7 | 0.00 | 0.00 | 0.00 | 70 | 1020.8 |
| 20260830150302 | 31 | 236 | 3.2 | 4.8 | 0.00 | 0.00 | 0.00 | 74 | 1020.7 |
| 20260830145757 | 30 | 271 | 1.6 | 1.6 | 0.00 | 0.00 | 0.00 | 73 | 1020.9 |
| 20260830145253 | 30 | 221 | 1.6 | 3.2 | 0.00 | 0.00 | 0.00 | 76 | 1020.8 |
| 20260830144748 | 30 | 177 | 4.8 | 9.7 | 0.00 | 0.00 | 0.00 | 74 | 1020.9 |
| 20260830144243 | 30 | 194 | 0.0 | 1.6 | 0.00 | 0.00 | 0.00 | 75 | 1020.8 |
| 20260830143740 | 29 | 206 | 4.8 | 8.0 | 0.00 | 0.00 | 0.00 | 76 | 1020.9 |
| 20260830143238 | 29 | 206 | 1.6 | 1.6 | 0.00 | 0.00 | 0.00 | 77 | 1021.0 |
| 20260830142733 | 29 | 175 | 4.8 | 8.0 | 0.00 | 0.00 | 0.00 | 77 | 1021.1 |
| 20260830142228 | 29 | 206 | 3.2 | 4.8 | 0.00 | 0.00 | 0.00 | 78 | 1020.9 |
| 20260830141723 | 28 | 223 | 1.6 | 3.2 | 0.00 | 0.00 | 0.00 | 80 | 1020.9 |
| 20260830141219 | 28 | 146 | 3.2 | 4.8 | 0.00 | 0.00 | 0.00 | 79 | 1020.8 |
| 20260830140713 | 28 | 201 | 3.2 | 4.8 | 0.00 | 0.00 | 0.00 | 79 | 1020.7 |
| 20260830140208 | 28 | 182 | 3.2 | 3.2 | 0.00 | 0.00 | 0.00 | 79 | 1020.8 |
| 20260830135708 | 28 | 209 | 1.6 | 1.6 | 0.00 | 0.00 | 0.00 | 82 | 1020.7 |
| 20260830135204 | 28 | 158 | 1.6 | 3.2 | 0.00 | 0.00 | 0.00 | 80 | 1020.5 |
| 20260830134700 | 27 | 209 | 1.6 | 1.6 | 0.00 | 0.00 | 0.00 | 83 | 1020.8 |
| 20260830134155 | 27 | 159 | 3.2 | 3.2 | 0.00 | 0.00 | 0.00 | 84 | 1020.6 |
| 20260830133650 | 27 | 232 | 0.0 | 0.0 | 0.00 | 0.00 | 0.00 | 85 | 1020.7 |
| 20260830133146 | 26 | 217 | 0.0 | 1.6 | 0.00 | 0.00 | 0.00 | 85 | 1020.4 |
| 20260830132642 | 26 | 167 | 1.6 | 3.2 | 0.00 | 0.00 | 0.00 | 87 | 1020.5 |
| 20260830132137 | 26 | 207 | 1.6 | 1.6 | 0.00 | 0.00 | 0.00 | 88 | 1020.5 |
| 20260830131636 | 25 | 204 | 0.0 | 0.0 | 0.00 | 0.00 | 0.00 | 90 | 1020.5 |
| 20260830131136 | 25 | 203 | 1.6 | 1.6 | 0.00 | 0.00 | 0.00 | 91 | 1020.3 |
| 20260830130631 | 25 | 205 | 1.6 | 1.6 | 0.00 | 0.00 | 0.00 | 93 | 1020.6 |
| 20260830130126 | 23 | 203 | 1.6 | 1.6 | 0.00 | 0.00 | 0.00 | 95 | 1020.6 |
| 20260830125625 | 23 | 196 | 1.6 | 1.6 | 0.00 | 0.00 | 0.00 | 96 | 1020.4 |
| 20260830125120 | 23 | 205 | 0.0 | 0.0 | 0.00 | 0.00 | 0.00 | 96 | 1020.3 |
| 20260830124618 | 23 | 209 | 1.6 | 3.2 | 0.00 | 0.00 | 0.00 | 97 | 1020.5 |
| 20260830124114 | 23 | 208 | 0.0 | 0.0 | 0.00 | 0.00 | 0.00 | 97 | 1020.2 |
| 20260830123611 | 23 | 218 | 0.0 | 0.0 | 0.00 | 0.00 | 0.00 | 98 | 1020.3 |
| 20260830123106 | 22 | 227 | 0.0 | 0.0 | 0.00 | 0.00 | 0.00 | 97 | 1020.4 |
| 20260830122603 | 22 | 228 | 0.0 | 0.0 | 0.00 | 0.00 | 0.00 | 97 | 1020.1 |
| 20260830122059 | 23 | 228 | 0.0 | 0.0 | 0.00 | 0.00 | 0.00 | 97 | 1020.0 |
| 20260830121554 | 23 | 228 | 0.0 | 0.0 | 0.00 | 0.00 | 0.00 | 97 | 1019.9 |
| 20260830121053 | 23 | 227 | 0.0 | 0.0 | 0.00 | 0.00 | 0.00 | 97 | 1020.1 |
| 20260830120549 | 23 | 228 | 0.0 | 0.0 | 0.00 | 0.00 | 0.00 | 96 | 1019.9 |
| 20260830120046 | 23 | 227 | 0.0 | 0.0 | 0.00 | 0.00 | 0.00 | 96 | 1019.8 |
| 20260830115541 | 23 | 227 | 0.0 | 0.0 | 0.00 | 0.00 | 0.00 | 96 | 1020.0 |
| 20260830115036 | 23 | 227 | 0.0 | 0.0 | 0.00 | 0.00 | 0.00 | 95 | 1019.9 |
| 20260830114533 | 23 | 227 | 0.0 | 0.0 | 0.00 | 0.00 | 0.00 | 95 | 1019.9 |
| 20260830114033 | 23 | 214 | 0.0 | 0.0 | 0.00 | 0.00 | 0.00 | 95 | 1019.8 |
| 20260830113527 | 23 | 213 | 0.0 | 0.0 | 0.00 | 0.00 | 0.00 | 94 | 1019.9 |
| 20260830113023 | 23 | 227 | 0.0 | 0.0 | 0.00 | 0.00 | 0.00 | 94 | 1019.7 |
| 20260830112519 | 23 | 227 | 0.0 | 0.0 | 0.00 | 0.00 | 0.00 | 94 | 1019.8 |
| 20260830112015 | 23 | 227 | 0.0 | 0.0 | 0.00 | 0.00 | 0.00 | 93 | 1019.5 |
| 20260830111511 | 23 | 228 | 0.0 | 0.0 | 0.00 | 0.00 | 0.00 | 93 | 1019.6 |
| 20260830111007 | 23 | 227 | 0.0 | 0.0 | 0.00 | 0.00 | 0.00 | 93 | 1019.7 |
| 20260830110506 | 23 | 228 | 0.0 | 0.0 | 0.00 | 0.00 | 0.00 | 92 | 1019.5 |
| 20260830110001 | 23 | 227 | 0.0 | 0.0 | 0.00 | 0.00 | 0.00 | 92 | 1019.5 |
| 20260830105457 | 23 | 231 | 0.0 | 0.0 | 0.00 | 0.00 | 0.00 | 91 | 1019.3 |
| 20260830104953 | 23 | 231 | 0.0 | 0.0 | 0.00 | 0.00 | 0.00 | 91 | 1019.5 |
| 20260830104449 | 24 | 228 | 0.0 | 0.0 | 0.00 | 0.00 | 0.00 | 91 | 1019.6 |
| 20260830103944 | 24 | 232 | 0.0 | 0.0 | 0.00 | 0.00 | 0.00 | 90 | 1019.4 |
| 20260830103439 | 24 | 227 | 0.0 | 0.0 | 0.00 | 0.00 | 0.00 | 90 | 1019.4 |
| 20260830102937 | 24 | 227 | 0.0 | 0.0 | 0.00 | 0.00 | 0.00 | 90 | 1019.3 |
| 20260830102433 | 24 | 228 | 0.0 | 0.0 | 0.00 | 0.00 | 0.00 | 89 | 1019.5 |
| 20260830101929 | 24 | 231 | 0.0 | 0.0 | 0.00 | 0.00 | 0.00 | 89 | 1019.5 |
| 20260830101425 | 24 | 227 | 0.0 | 0.0 | 0.00 | 0.00 | 0.00 | 88 | 1019.4 |
| 20260830100924 | 25 | 230 | 0.0 | 0.0 | 0.00 | 0.00 | 0.00 | 88 | 1019.3 |
| 20260830100423 | 25 | 218 | 0.0 | 0.0 | 0.00 | 0.00 | 0.00 | 88 | 1019.4 |
| 20260830095922 | 25 | 225 | 0.0 | 0.0 | 0.00 | 0.00 | 0.00 | 87 | 1019.4 |
| 20260830095418 | 25 | 227 | 0.0 | 0.0 | 0.00 | 0.00 | 0.00 | 87 | 1019.4 |
| 20260830094914 | 25 | 218 | 0.0 | 0.0 | 0.00 | 0.00 | 0.00 | 86 | 1019.4 |
| 20260830094410 | 25 | 212 | 0.0 | 0.0 | 0.00 | 0.00 | 0.00 | 85 | 1019.3 |
| 20260830093906 | 25 | 211 | 0.0 | 0.0 | 0.00 | 0.00 | 0.00 | 85 | 1019.2 |
| 20260830093400 | 25 | 205 | 1.6 | 3.2 | 0.00 | 0.00 | 0.00 | 84 | 1019.2 |
| 20260830092856 | 25 | 205 | 0.0 | 0.0 | 0.00 | 0.00 | 0.00 | 85 | 1019.3 |
| 20260830092351 | 25 | 203 | 0.0 | 1.6 | 0.00 | 0.00 | 0.00 | 84 | 1019.2 |
| 20260830091848 | 25 | 212 | 0.0 | 0.0 | 0.00 | 0.00 | 0.00 | 84 | 1019.3 |
| 20260830091347 | 25 | 214 | 0.0 | 0.0 | 0.00 | 0.00 | 0.00 | 83 | 1019.4 |
| 20260830090846 | 25 | 204 | 0.0 | 1.6 | 0.00 | 0.00 | 0.00 | 83 | 1019.3 |
| 20260830090342 | 25 | 226 | 0.0 | 0.0 | 0.00 | 0.00 | 0.00 | 83 | 1019.3 |
| 20260830085842 | 25 | 231 | 0.0 | 0.0 | 0.00 | 0.00 | 0.00 | 83 | 1019.2 |
| 20260830085337 | 25 | 229 | 0.0 | 0.0 | 0.00 | 0.00 | 0.00 | 83 | 1019.5 |
| 20260830084833 | 25 | 213 | 0.0 | 0.0 | 0.00 | 0.00 | 0.00 | 81 | 1019.1 |
| 20260830084328 | 26 | 213 | 0.0 | 1.6 | 0.00 | 0.00 | 0.00 | 80 | 1019.5 |
| 20260830083823 | 26 | 213 | 1.6 | 3.2 | 0.00 | 0.00 | 0.00 | 80 | 1019.2 |
| 20260830083319 | 26 | 175 | 1.6 | 3.2 | 0.00 | 0.00 | 0.00 | 80 | 1019.4 |
| 20260830082818 | 25 | 207 | 4.8 | 8.0 | 0.00 | 0.00 | 0.00 | 81 | 1019.4 |
| 20260830082313 | 26 | 214 | 0.0 | 0.0 | 0.00 | 0.00 | 0.00 | 81 | 1019.6 |
| 20260830081809 | 26 | 213 | 0.0 | 1.6 | 0.00 | 0.00 | 0.00 | 80 | 1019.4 |
| 20260830081303 | 26 | 205 | 1.6 | 1.6 | 0.00 | 0.00 | 0.00 | 80 | 1019.5 |
| 20260830080802 | 26 | 197 | 3.2 | 3.2 | 0.00 | 0.00 | 0.00 | 79 | 1019.5 |
| 20260830080259 | 26 | 193 | 6.4 | 8.0 | 0.00 | 0.00 | 0.00 | 79 | 1019.5 |
| 20260830075758 | 26 | 207 | 0.0 | 1.6 | 0.00 | 0.00 | 0.00 | 78 | 1019.4 |
| 20260830075254 | 26 | 189 | 4.8 | 4.8 | 0.00 | 0.00 | 0.00 | 78 | 1019.7 |
| 20260830074749 | 26 | 210 | 1.6 | 1.6 | 0.00 | 0.00 | 0.00 | 77 | 1019.9 |
| 20260830074245 | 26 | 207 | 1.6 | 1.6 | 0.00 | 0.00 | 0.00 | 77 | 1019.7 |
| 20260830073741 | 26 | 163 | 4.8 | 4.8 | 0.00 | 0.00 | 0.00 | 77 | 1019.7 |
| 20260830073237 | 26 | 203 | 0.0 | 0.0 | 0.00 | 0.00 | 0.00 | 76 | 1019.8 |
| 20260830072736 | 27 | 207 | 0.0 | 0.0 | 0.00 | 0.00 | 0.00 | 75 | 1019.5 |
| 20260830072232 | 27 | 228 | 1.6 | 1.6 | 0.00 | 0.00 | 0.00 | 75 | 1019.7 |
| 20260830071727 | 27 | 198 | 1.6 | 3.2 | 0.00 | 0.00 | 0.00 | 74 | 1019.6 |
| 20260830071226 | 27 | 199 | 1.6 | 1.6 | 0.00 | 0.00 | 0.00 | 74 | 1019.5 |
| 20260830070725 | 27 | 203 | 3.2 | 4.8 | 0.00 | 0.00 | 0.00 | 74 | 1019.6 |
| 20260830070220 | 27 | 187 | 1.6 | 3.2 | 0.00 | 0.00 | 0.00 | 75 | 1019.5 |
| 20260830065719 | 27 | 232 | 0.0 | 0.0 | 0.00 | 0.00 | 0.00 | 76 | 1019.7 |
| 20260830065214 | 27 | 156 | 3.2 | 3.2 | 0.00 | 0.00 | 0.00 | 76 | 1019.6 |
| 20260830064712 | 27 | 203 | 1.6 | 1.6 | 0.00 | 0.00 | 0.00 | 78 | 1019.4 |
| 20260830064208 | 27 | 234 | 0.0 | 0.0 | 0.00 | 0.00 | 0.00 | 77 | 1019.6 |